| time (UTC) | temp F | wind direction | speed MPH | gust MPH | rain 1hr in | rain 24hr in | rain mn in | humidity % | barometer mb |
| 20260906075432 | 69 | 88 | 0.0 | 4.0 | 0.00 | 0.00 | 0.00 | 98 | 1017.2 |
| 20260906074927 | 69 | 81 | 4.0 | 6.0 | 0.00 | 0.00 | 0.00 | 98 | 1017.3 |
| 20260906074427 | 69 | 61 | 4.0 | 8.0 | 0.00 | 0.00 | 0.00 | 98 | 1017.2 |
| 20260906073926 | 69 | 79 | 3.0 | 4.0 | 0.00 | 0.00 | 0.00 | 98 | 1017.3 |
| 20260906073421 | 69 | 84 | 0.0 | 5.0 | 0.00 | 0.00 | 0.00 | 97 | 1017.3 |
| 20260906072917 | 70 | 77 | 3.0 | 8.0 | 0.00 | 0.00 | 0.00 | 97 | 1017.2 |
| 20260906072412 | 70 | 24 | 2.0 | 9.0 | 0.00 | 0.00 | 0.00 | 97 | 1017.3 |
| 20260906071908 | 70 | 71 | 2.0 | 5.0 | 0.00 | 0.00 | 0.00 | 97 | 1017.6 |
| 20260906071403 | 70 | 57 | 3.0 | 8.0 | 0.00 | 0.00 | 0.00 | 96 | 1017.5 |
| 20260906070859 | 71 | 65 | 4.0 | 11.0 | 0.00 | 0.00 | 0.00 | 96 | 1017.3 |
| 20260906070355 | 71 | 31 | 3.0 | 10.0 | 0.00 | 0.00 | 0.00 | 95 | 1017.6 |
| 20260906065850 | 71 | 81 | 3.0 | 9.0 | 0.00 | 0.00 | 0.00 | 95 | 1017.7 |
| 20260906065344 | 71 | 71 | 3.0 | 7.0 | 0.00 | 0.00 | 0.00 | 95 | 1017.8 |
| 20260906064840 | 71 | 84 | 5.0 | 9.0 | 0.00 | 0.00 | 0.00 | 95 | 1017.7 |
| 20260906064336 | 71 | 83 | 5.0 | 11.0 | 0.00 | 0.00 | 0.00 | 95 | 1017.8 |
| 20260906063831 | 71 | 84 | 5.0 | 9.0 | 0.00 | 0.00 | 0.00 | 96 | 1017.5 |
| 20260906063326 | 71 | 79 | 10.0 | 11.0 | 0.00 | 0.00 | 0.00 | 96 | 1017.6 |
| 20260906062821 | 71 | 84 | 4.0 | 9.0 | 0.00 | 0.00 | 0.00 | 96 | 1017.4 |
| 20260906062320 | 72 | 90 | 4.0 | 9.0 | 0.00 | 0.00 | 0.00 | 96 | 1017.3 |
| 20260906061816 | 72 | 68 | 4.0 | 11.0 | 0.00 | 0.00 | 0.00 | 96 | 1017.3 |
| 20260906061312 | 72 | 99 | 3.0 | 9.0 | 0.00 | 0.00 | 0.00 | 96 | 1017.1 |
| 20260906060807 | 72 | 93 | 3.0 | 9.0 | 0.00 | 0.00 | 0.00 | 95 | 1017.4 |
| 20260906060305 | 72 | 75 | 4.0 | 13.0 | 0.00 | 0.00 | 0.00 | 95 | 1017.7 |
| 20260906055800 | 72 | 53 | 3.0 | 13.0 | 0.00 | 0.00 | 0.00 | 95 | 1017.3 |
| 20260906055255 | 72 | 66 | 6.0 | 20.0 | 0.00 | 0.00 | 0.00 | 96 | 1017.6 |
| 20260906054750 | 72 | 77 | 2.0 | 5.0 | 0.00 | 0.00 | 0.00 | 97 | 1017.7 |
| 20260906054246 | 73 | 67 | 3.0 | 11.0 | 0.00 | 0.00 | 0.00 | 96 | 1017.7 |
| 20260906053743 | 73 | 85 | 3.0 | 7.0 | 0.00 | 0.00 | 0.00 | 96 | 1017.6 |
| 20260906053238 | 73 | 89 | 5.0 | 9.0 | 0.00 | 0.00 | 0.00 | 96 | 1017.5 |
| 20260906052733 | 73 | 94 | 3.0 | 7.0 | 0.00 | 0.00 | 0.00 | 96 | 1017.5 |
| 20260906052229 | 73 | 101 | 2.0 | 7.0 | 0.00 | 0.00 | 0.00 | 96 | 1017.4 |
| 20260906051726 | 73 | 80 | 5.0 | 11.0 | 0.00 | 0.00 | 0.00 | 96 | 1017.4 |
| 20260906051225 | 73 | 93 | 2.0 | 7.0 | 0.00 | 0.00 | 0.00 | 96 | 1017.4 |
| 20260906050720 | 73 | 70 | 4.0 | 7.0 | 0.00 | 0.00 | 0.00 | 95 | 1017.2 |
| 20260906050216 | 73 | 89 | 7.0 | 9.0 | 0.00 | 0.00 | 0.00 | 95 | 1017.4 |
| 20260906045714 | 73 | 104 | 3.0 | 7.0 | 0.00 | 0.00 | 0.00 | 95 | 1017.3 |
| 20260906045209 | 74 | 95 | 4.0 | 5.0 | 0.00 | 0.00 | 0.00 | 94 | 1017.4 |
| 20260906044705 | 74 | 38 | 0.0 | 4.0 | 0.00 | 0.00 | 0.00 | 94 | 1017.4 |
| 20260906044200 | 74 | 49 | 0.0 | 4.0 | 0.00 | 0.00 | 0.00 | 93 | 1017.5 |
| 20260906043656 | 74 | 178 | 0.0 | 5.0 | 0.00 | 0.00 | 0.00 | 93 | 1017.4 |
| 20260906043152 | 74 | 48 | 3.0 | 5.0 | 0.00 | 0.00 | 0.00 | 93 | 1017.3 |
| 20260906042651 | 74 | 16 | 1.0 | 5.0 | 0.00 | 0.00 | 0.00 | 92 | 1016.9 |
| 20260906042145 | 75 | 35 | 3.0 | 8.0 | 0.00 | 0.00 | 0.00 | 92 | 1017.0 |
| 20260906041641 | 75 | 51 | 3.0 | 5.0 | 0.00 | 0.00 | 0.00 | 92 | 1016.7 |
| 20260906041136 | 75 | 61 | 4.0 | 8.0 | 0.00 | 0.00 | 0.00 | 92 | 1016.6 |
| 20260906040631 | 75 | 14 | 2.0 | 8.0 | 0.00 | 0.00 | 0.00 | 92 | 1016.7 |
| 20260906040127 | 75 | 0 | 0.0 | 8.0 | 0.00 | 0.00 | 0.00 | 92 | 1016.6 |
| 20260906035622 | 75 | 60 | 2.0 | 5.0 | 0.00 | 0.00 | 0.00 | 92 | 1016.5 |
| 20260906035117 | 75 | 44 | 1.0 | 3.0 | 0.00 | 0.00 | 0.00 | 92 | 1016.7 |
| 20260906034612 | 75 | 4 | 3.0 | 4.0 | 0.00 | 0.00 | 0.00 | 92 | 1016.5 |
| 20260906034107 | 75 | 69 | 1.0 | 5.0 | 0.00 | 0.00 | 0.00 | 92 | 1016.2 |
| 20260906033602 | 74 | 58 | 2.0 | 4.0 | 0.00 | 0.00 | 0.00 | 93 | 1016.3 |
| 20260906033057 | 74 | 0 | 0.0 | 3.0 | 0.00 | 0.00 | 0.00 | 93 | 1016.4 |
| 20260906032554 | 74 | 25 | 0.0 | 1.0 | 0.00 | 0.00 | 0.00 | 93 | 1016.3 |
| 20260906032053 | 74 | 73 | 0.0 | 2.0 | 0.00 | 0.00 | 0.00 | 93 | 1016.4 |
| 20260906031549 | 74 | 0 | 0.0 | 2.0 | 0.00 | 0.00 | 0.00 | 94 | 1016.3 |
| 20260906031045 | 74 | 343 | 0.0 | 2.0 | 0.00 | 0.00 | 0.00 | 94 | 1016.3 |
| 20260906030544 | 74 | 354 | 0.0 | 2.0 | 0.00 | 0.00 | 0.00 | 94 | 1016.0 |
| 20260906030043 | 73 | 334 | 0.0 | 2.0 | 0.00 | 0.00 | 0.00 | 94 | 1016.2 |
| 20260906025538 | 73 | 315 | 0.0 | 2.0 | 0.00 | 0.00 | 0.00 | 94 | 1016.1 |
| 20260906025036 | 73 | 48 | 0.0 | 2.0 | 0.00 | 0.00 | 0.00 | 94 | 1016.0 |
| 20260906024532 | 73 | 304 | 0.0 | 1.0 | 0.00 | 0.00 | 0.00 | 94 | 1015.9 |
| 20260906024031 | 73 | 62 | 0.0 | 0.0 | 0.00 | 0.00 | 0.00 | 94 | 1016.0 |
| 20260906023528 | 73 | 63 | 0.0 | 2.0 | 0.00 | 0.00 | 0.00 | 94 | 1015.9 |
| 20260906023023 | 73 | 180 | 0.0 | 0.0 | 0.00 | 0.00 | 0.00 | 94 | 1016.1 |
| 20260906022518 | 73 | 122 | 2.0 | 3.0 | 0.00 | 0.00 | 0.00 | 94 | 1015.8 |
| 20260906022013 | 74 | 52 | 0.0 | 3.0 | 0.00 | 0.00 | 0.00 | 93 | 1015.8 |
| 20260906021508 | 74 | 99 | 0.0 | 4.0 | 0.00 | 0.00 | 0.00 | 93 | 1015.5 |
| 20260906021002 | 74 | 73 | 3.0 | 5.0 | 0.00 | 0.00 | 0.00 | 93 | 1015.5 |
| 20260906020456 | 74 | 75 | 2.0 | 3.0 | 0.00 | 0.00 | 0.00 | 93 | 1015.5 |
| 20260906015955 | 74 | 96 | 2.0 | 3.0 | 0.00 | 0.00 | 0.00 | 92 | 1015.5 |
| 20260906015450 | 74 | 66 | 5.0 | 7.0 | 0.00 | 0.00 | 0.00 | 92 | 1015.6 |
| 20260906014950 | 74 | 94 | 4.0 | 6.0 | 0.00 | 0.00 | 0.00 | 92 | 1015.4 |
| 20260906014449 | 74 | 52 | 2.0 | 5.0 | 0.00 | 0.00 | 0.00 | 92 | 1015.3 |
| 20260906013946 | 74 | 85 | 0.0 | 7.0 | 0.00 | 0.00 | 0.00 | 92 | 1015.2 |
| 20260906013441 | 75 | 113 | 1.0 | 5.0 | 0.00 | 0.00 | 0.00 | 91 | 1015.2 |
| 20260906012936 | 75 | 87 | 3.0 | 7.0 | 0.00 | 0.00 | 0.00 | 91 | 1015.1 |
| 20260906012431 | 75 | 44 | 3.0 | 5.0 | 0.00 | 0.00 | 0.00 | 91 | 1015.0 |
| 20260906011930 | 75 | 84 | 4.0 | 5.0 | 0.00 | 0.00 | 0.00 | 91 | 1015.1 |
| 20260906011426 | 75 | 102 | 1.0 | 6.0 | 0.00 | 0.00 | 0.00 | 91 | 1015.1 |
| 20260906010921 | 75 | 39 | 2.0 | 7.0 | 0.00 | 0.00 | 0.00 | 90 | 1015.1 |
| 20260906010417 | 76 | 57 | 3.0 | 8.0 | 0.00 | 0.00 | 0.00 | 90 | 1015.1 |
| 20260906005913 | 76 | 43 | 5.0 | 6.0 | 0.00 | 0.00 | 0.00 | 90 | 1015.4 |
| 20260906005412 | 76 | 48 | 3.0 | 8.0 | 0.00 | 0.00 | 0.00 | 91 | 1015.3 |
| 20260906004910 | 76 | 81 | 3.0 | 9.0 | 0.00 | 0.00 | 0.00 | 90 | 1015.2 |
| 20260906004405 | 77 | 84 | 5.0 | 9.0 | 0.00 | 0.00 | 0.00 | 89 | 1015.2 |
| 20260906003900 | 77 | 64 | 5.0 | 8.0 | 0.00 | 0.00 | 0.00 | 88 | 1015.3 |
| 20260906003356 | 78 | 38 | 7.0 | 7.0 | 0.00 | 0.00 | 0.00 | 87 | 1015.3 |
| 20260906002851 | 78 | 27 | 5.0 | 9.0 | 0.00 | 0.00 | 0.00 | 86 | 1015.4 |
| 20260906002350 | 78 | 71 | 7.0 | 8.0 | 0.00 | 0.00 | 0.00 | 85 | 1015.3 |
| 20260906001846 | 79 | 62 | 5.0 | 10.0 | 0.00 | 0.00 | 0.00 | 85 | 1015.1 |
| 20260906001342 | 79 | 62 | 3.0 | 9.0 | 0.00 | 0.00 | 0.00 | 84 | 1015.3 |
| 20260906000836 | 80 | 99 | 3.0 | 9.0 | 0.00 | 0.00 | 0.00 | 84 | 1015.5 |
| 20260906000333 | 80 | 31 | 2.0 | 8.0 | 0.00 | 0.00 | 0.00 | 84 | 1015.5 |
| 20260905235831 | 80 | 40 | 2.0 | 6.0 | 0.00 | 0.00 | 0.00 | 84 | 1015.2 |
| 20260905235326 | 81 | 75 | 4.0 | 10.0 | 0.00 | 0.00 | 0.00 | 84 | 1015.4 |
| 20260905234821 | 81 | 46 | 5.0 | 13.0 | 0.00 | 0.00 | 0.00 | 83 | 1015.1 |
| 20260905234316 | 82 | 73 | 6.0 | 10.0 | 0.00 | 0.00 | 0.00 | 82 | 1015.1 |
| 20260905233811 | 82 | 105 | 4.0 | 13.0 | 0.00 | 0.00 | 0.00 | 82 | 1015.0 |
| 20260905233306 | 83 | 73 | 4.0 | 11.0 | 0.00 | 0.00 | 0.00 | 81 | 1015.1 |
| 20260905232804 | 83 | 60 | 5.0 | 10.0 | 0.00 | 0.00 | 0.00 | 81 | 1014.9 |
| 20260905232300 | 83 | 59 | 2.0 | 19.0 | 0.00 | 0.00 | 0.00 | 81 | 1014.9 |
| 20260905231751 | 84 | 59 | 5.0 | 12.0 | 0.00 | 0.00 | 0.00 | 81 | 1014.9 |
| 20260905231246 | 84 | 77 | 5.0 | 10.0 | 0.00 | 0.00 | 0.00 | 81 | 1014.9 |
| 20260905230742 | 85 | 105 | 1.0 | 7.0 | 0.00 | 0.00 | 0.00 | 80 | 1014.7 |
| 20260905230240 | 84 | 74 | 4.0 | 9.0 | 0.00 | 0.00 | 0.00 | 80 | 1014.9 |
| 20260905225740 | 85 | 242 | 1.0 | 9.0 | 0.00 | 0.00 | 0.00 | 80 | 1014.8 |
| 20260905225235 | 85 | 358 | 4.0 | 8.0 | 0.00 | 0.00 | 0.00 | 80 | 1014.8 |
| 20260905224734 | 85 | 350 | 1.0 | 10.0 | 0.00 | 0.00 | 0.00 | 80 | 1015.2 |
| 20260905224230 | 86 | 334 | 6.0 | 9.0 | 0.00 | 0.00 | 0.00 | 79 | 1015.1 |
| 20260905223726 | 85 | 39 | 3.0 | 10.0 | 0.00 | 0.00 | 0.00 | 80 | 1015.0 |
| 20260905223223 | 86 | 76 | 3.0 | 11.0 | 0.00 | 0.00 | 0.00 | 79 | 1015.0 |
| 20260905222718 | 86 | 53 | 4.0 | 11.0 | 0.00 | 0.00 | 0.00 | 79 | 1015.0 |
| 20260905222217 | 86 | 19 | 6.0 | 7.0 | 0.00 | 0.00 | 0.00 | 78 | 1014.9 |
| 20260905221713 | 86 | 340 | 2.0 | 8.0 | 0.00 | 0.00 | 0.00 | 77 | 1014.7 |
| 20260905221210 | 87 | 41 | 4.0 | 8.0 | 0.00 | 0.00 | 0.00 | 77 | 1014.9 |
| 20260905220705 | 86 | 0 | 6.0 | 10.0 | 0.00 | 0.00 | 0.00 | 77 | 1014.7 |
| 20260905220201 | 86 | 66 | 3.0 | 10.0 | 0.00 | 0.00 | 0.00 | 77 | 1014.7 |
| 20260905215700 | 86 | 4 | 4.0 | 11.0 | 0.00 | 0.00 | 0.00 | 78 | 1014.5 |
| 20260905215156 | 86 | 32 | 7.0 | 11.0 | 0.00 | 0.00 | 0.00 | 78 | 1014.9 |
| 20260905214652 | 86 | 357 | 4.0 | 8.0 | 0.00 | 0.00 | 0.00 | 78 | 1014.7 |
| 20260905214147 | 86 | 72 | 3.0 | 10.0 | 0.00 | 0.00 | 0.00 | 78 | 1015.0 |
| 20260905213642 | 87 | 55 | 6.0 | 8.0 | 0.00 | 0.00 | 0.00 | 77 | 1014.9 |
| 20260905213138 | 88 | 35 | 4.0 | 8.0 | 0.00 | 0.00 | 0.00 | 76 | 1014.9 |
| 20260905212633 | 87 | 355 | 1.0 | 8.0 | 0.00 | 0.00 | 0.00 | 78 | 1014.7 |
| 20260905212132 | 89 | 54 | 4.0 | 10.0 | 0.00 | 0.00 | 0.00 | 76 | 1014.6 |
| 20260905211627 | 88 | 34 | 4.0 | 10.0 | 0.00 | 0.00 | 0.00 | 77 | 1014.6 |
| 20260905211123 | 88 | 43 | 4.0 | 14.0 | 0.00 | 0.00 | 0.00 | 77 | 1014.6 |
| 20260905210619 | 89 | 54 | 5.0 | 11.0 | 0.00 | 0.00 | 0.00 | 76 | 1014.3 |
| 20260905210114 | 89 | 72 | 6.0 | 12.0 | 0.00 | 0.00 | 0.00 | 76 | 1014.3 |
| 20260905205613 | 90 | 15 | 4.0 | 8.0 | 0.00 | 0.00 | 0.00 | 75 | 1014.5 |
| 20260905205112 | 90 | 65 | 11.0 | 13.0 | 0.00 | 0.00 | 0.00 | 75 | 1014.5 |
| 20260905204606 | 90 | 1 | 3.0 | 12.0 | 0.00 | 0.00 | 0.00 | 75 | 1014.8 |
| 20260905204101 | 90 | 331 | 0.0 | 11.0 | 0.00 | 0.00 | 0.00 | 76 | 1014.6 |
| 20260905203556 | 90 | 25 | 4.0 | 11.0 | 0.00 | 0.00 | 0.00 | 77 | 1014.6 |
| 20260905203052 | 89 | 91 | 5.0 | 12.0 | 0.00 | 0.00 | 0.00 | 77 | 1014.8 |
| 20260905202547 | 90 | 39 | 4.0 | 12.0 | 0.00 | 0.00 | 0.00 | 75 | 1014.6 |
| 20260905202042 | 92 | 349 | 1.0 | 6.0 | 0.00 | 0.00 | 0.00 | 72 | 1014.8 |
| 20260905201538 | 91 | 48 | 3.0 | 7.0 | 0.00 | 0.00 | 0.00 | 73 | 1014.6 |
| 20260905201037 | 92 | 32 | 4.0 | 14.0 | 0.00 | 0.00 | 0.00 | 72 | 1014.8 |
| 20260905200533 | 92 | 75 | 6.0 | 9.0 | 0.00 | 0.00 | 0.00 | 72 | 1014.8 |
| 20260905200032 | 91 | 41 | 1.0 | 6.0 | 0.00 | 0.00 | 0.00 | 73 | 1014.6 |
| 20260905195526 | 91 | 324 | 3.0 | 12.0 | 0.00 | 0.00 | 0.00 | 71 | 1014.7 |
| 20260905195022 | 93 | 39 | 3.0 | 7.0 | 0.00 | 0.00 | 0.00 | 68 | 1014.4 |
| 20260905194521 | 93 | 55 | 4.0 | 6.0 | 0.00 | 0.00 | 0.00 | 68 | 1014.7 |
| 20260905194015 | 93 | 65 | 7.0 | 11.0 | 0.00 | 0.00 | 0.00 | 68 | 1014.9 |
| 20260905193510 | 93 | 57 | 3.0 | 9.0 | 0.00 | 0.00 | 0.00 | 70 | 1014.8 |
| 20260905193005 | 92 | 292 | 2.0 | 10.0 | 0.00 | 0.00 | 0.00 | 70 | 1014.5 |
| 20260905192500 | 93 | 47 | 4.0 | 10.0 | 0.00 | 0.00 | 0.00 | 68 | 1014.8 |
| 20260905191956 | 93 | 357 | 0.0 | 4.0 | 0.00 | 0.00 | 0.00 | 69 | 1014.8 |
| 20260905191455 | 92 | 38 | 1.0 | 5.0 | 0.00 | 0.00 | 0.00 | 70 | 1014.8 |
| 20260905190954 | 92 | 287 | 4.0 | 7.0 | 0.00 | 0.00 | 0.00 | 70 | 1014.9 |
| 20260905190452 | 94 | 68 | 3.0 | 6.0 | 0.00 | 0.00 | 0.00 | 68 | 1014.9 |
| 20260905185951 | 94 | 32 | 2.0 | 4.0 | 0.00 | 0.00 | 0.00 | 68 | 1014.8 |
| 20260905185447 | 92 | 289 | 2.0 | 5.0 | 0.00 | 0.00 | 0.00 | 72 | 1014.9 |
| 20260905184945 | 90 | 53 | 2.0 | 7.0 | 0.00 | 0.00 | 0.00 | 74 | 1015.1 |
| 20260905184440 | 91 | 21 | 2.0 | 6.0 | 0.00 | 0.00 | 0.00 | 72 | 1014.9 |
| 20260905183938 | 93 | 76 | 3.0 | 6.0 | 0.00 | 0.00 | 0.00 | 70 | 1015.0 |
| 20260905183433 | 92 | 350 | 1.0 | 5.0 | 0.00 | 0.00 | 0.00 | 70 | 1014.9 |
| 20260905182928 | 93 | 37 | 1.0 | 11.0 | 0.00 | 0.00 | 0.00 | 69 | 1015.0 |
| 20260905182427 | 92 | 13 | 3.0 | 7.0 | 0.00 | 0.00 | 0.00 | 70 | 1014.9 |
| 20260905181923 | 93 | 30 | 0.0 | 5.0 | 0.00 | 0.00 | 0.00 | 71 | 1014.9 |
| 20260905181418 | 92 | 314 | 2.0 | 6.0 | 0.00 | 0.00 | 0.00 | 71 | 1014.9 |
| 20260905180918 | 92 | 46 | 2.0 | 4.0 | 0.00 | 0.00 | 0.00 | 71 | 1015.0 |
| 20260905180413 | 92 | 340 | 1.0 | 5.0 | 0.00 | 0.00 | 0.00 | 71 | 1015.0 |
| 20260905175913 | 93 | 243 | 3.0 | 6.0 | 0.00 | 0.00 | 0.00 | 70 | 1015.2 |
| 20260905175412 | 92 | 347 | 2.0 | 4.0 | 0.00 | 0.00 | 0.00 | 70 | 1015.3 |
| 20260905174907 | 92 | 41 | 3.0 | 8.0 | 0.00 | 0.00 | 0.00 | 71 | 1015.1 |
| 20260905174403 | 92 | 320 | 2.0 | 7.0 | 0.00 | 0.00 | 0.00 | 70 | 1015.0 |
| 20260905173858 | 91 | 67 | 3.0 | 7.0 | 0.00 | 0.00 | 0.00 | 71 | 1015.4 |
| 20260905173355 | 92 | 6 | 0.0 | 5.0 | 0.00 | 0.00 | 0.00 | 71 | 1015.2 |
| 20260905172849 | 94 | 43 | 9.0 | 9.0 | 0.00 | 0.00 | 0.00 | 68 | 1015.4 |
| 20260905172347 | 93 | 145 | 3.0 | 4.0 | 0.00 | 0.00 | 0.00 | 70 | 1015.1 |
| 20260905171843 | 91 | 19 | 1.0 | 5.0 | 0.00 | 0.00 | 0.00 | 71 | 1015.4 |
| 20260905171340 | 92 | 1 | 3.0 | 8.0 | 0.00 | 0.00 | 0.00 | 70 | 1015.6 |
| 20260905170836 | 91 | 116 | 2.0 | 8.0 | 0.00 | 0.00 | 0.00 | 72 | 1015.6 |
| 20260905170332 | 93 | 204 | 0.0 | 7.0 | 0.00 | 0.00 | 0.00 | 70 | 1015.4 |
| 20260905165831 | 92 | 105 | 3.0 | 7.0 | 0.00 | 0.00 | 0.00 | 72 | 1015.6 |
| 20260905165327 | 91 | 105 | 3.0 | 7.0 | 0.00 | 0.00 | 0.00 | 72 | 1015.6 |
| 20260905164826 | 91 | 17 | 1.0 | 5.0 | 0.00 | 0.00 | 0.00 | 72 | 1015.5 |
| 20260905164321 | 91 | 357 | 0.0 | 7.0 | 0.00 | 0.00 | 0.00 | 73 | 1015.7 |
| 20260905163817 | 92 | 20 | 3.0 | 6.0 | 0.00 | 0.00 | 0.00 | 72 | 1015.5 |
| 20260905163313 | 91 | 58 | 4.0 | 5.0 | 0.00 | 0.00 | 0.00 | 72 | 1015.6 |
| 20260905162809 | 90 | 55 | 4.0 | 7.0 | 0.00 | 0.00 | 0.00 | 73 | 1015.5 |
| 20260905162309 | 91 | 114 | 1.0 | 7.0 | 0.00 | 0.00 | 0.00 | 72 | 1015.6 |
| 20260905161803 | 90 | 287 | 2.0 | 8.0 | 0.00 | 0.00 | 0.00 | 73 | 1015.5 |
| 20260905161303 | 91 | 79 | 2.0 | 7.0 | 0.00 | 0.00 | 0.00 | 72 | 1015.1 |
| 20260905160801 | 89 | 17 | 3.0 | 7.0 | 0.00 | 0.00 | 0.00 | 75 | 1015.6 |
| 20260905160255 | 89 | 52 | 4.0 | 6.0 | 0.00 | 0.00 | 0.00 | 74 | 1015.4 |
| 20260905155750 | 90 | 67 | 5.0 | 10.0 | 0.00 | 0.00 | 0.00 | 73 | 1015.3 |
| 20260905155249 | 89 | 105 | 0.0 | 9.0 | 0.00 | 0.00 | 0.00 | 75 | 1015.2 |
| 20260905154743 | 89 | 70 | 5.0 | 10.0 | 0.00 | 0.00 | 0.00 | 74 | 1015.4 |
| 20260905154239 | 89 | 85 | 5.0 | 12.0 | 0.00 | 0.00 | 0.00 | 75 | 1015.4 |
| 20260905153735 | 89 | 67 | 5.0 | 8.0 | 0.00 | 0.00 | 0.00 | 75 | 1015.3 |
| 20260905153230 | 89 | 52 | 3.0 | 7.0 | 0.00 | 0.00 | 0.00 | 75 | 1015.4 |
| 20260905152724 | 88 | 13 | 7.0 | 8.0 | 0.00 | 0.00 | 0.00 | 78 | 1015.1 |
| 20260905152219 | 88 | 326 | 2.0 | 7.0 | 0.00 | 0.00 | 0.00 | 77 | 1015.5 |
| 20260905151718 | 88 | 297 | 2.0 | 7.0 | 0.00 | 0.00 | 0.00 | 78 | 1015.4 |
| 20260905151215 | 87 | 45 | 2.0 | 9.0 | 0.00 | 0.00 | 0.00 | 78 | 1015.0 |
| 20260905150710 | 87 | 41 | 3.0 | 7.0 | 0.00 | 0.00 | 0.00 | 79 | 1015.3 |
| 20260905150209 | 88 | 35 | 3.0 | 5.0 | 0.00 | 0.00 | 0.00 | 77 | 1015.0 |
| 20260905145706 | 87 | 303 | 1.0 | 6.0 | 0.00 | 0.00 | 0.00 | 78 | 1015.1 |
| 20260905145202 | 87 | 61 | 3.0 | 7.0 | 0.00 | 0.00 | 0.00 | 77 | 1015.0 |
| 20260905144700 | 86 | 59 | 4.0 | 11.0 | 0.00 | 0.00 | 0.00 | 79 | 1015.0 |
| 20260905144155 | 86 | 357 | 4.0 | 8.0 | 0.00 | 0.00 | 0.00 | 77 | 1014.9 |
| 20260905143654 | 86 | 348 | 1.0 | 7.0 | 0.00 | 0.00 | 0.00 | 78 | 1014.7 |
| 20260905143149 | 86 | 94 | 4.0 | 7.0 | 0.00 | 0.00 | 0.00 | 76 | 1014.8 |
| 20260905142648 | 87 | 10 | 2.0 | 7.0 | 0.00 | 0.00 | 0.00 | 75 | 1014.6 |
| 20260905142148 | 86 | 340 | 1.0 | 5.0 | 0.00 | 0.00 | 0.00 | 78 | 1014.7 |
| 20260905141643 | 85 | 30 | 2.0 | 8.0 | 0.00 | 0.00 | 0.00 | 80 | 1014.7 |
| 20260905141139 | 85 | 25 | 2.0 | 7.0 | 0.00 | 0.00 | 0.00 | 80 | 1014.7 |
| 20260905140633 | 84 | 62 | 2.0 | 5.0 | 0.00 | 0.00 | 0.00 | 82 | 1014.7 |
| 20260905140133 | 84 | 33 | 3.0 | 8.0 | 0.00 | 0.00 | 0.00 | 83 | 1014.6 |
| 20260905135628 | 84 | 23 | 0.0 | 6.0 | 0.00 | 0.00 | 0.00 | 85 | 1014.2 |
| 20260905135124 | 84 | 32 | 2.0 | 7.0 | 0.00 | 0.00 | 0.00 | 84 | 1014.6 |
| 20260905134618 | 84 | 31 | 1.0 | 5.0 | 0.00 | 0.00 | 0.00 | 86 | 1014.3 |
| 20260905134117 | 83 | 55 | 3.0 | 7.0 | 0.00 | 0.00 | 0.00 | 86 | 1014.4 |
| 20260905133613 | 83 | 11 | 2.0 | 7.0 | 0.00 | 0.00 | 0.00 | 87 | 1014.4 |
| 20260905133113 | 83 | 138 | 0.0 | 5.0 | 0.00 | 0.00 | 0.00 | 88 | 1014.5 |
| 20260905132613 | 82 | 53 | 0.0 | 6.0 | 0.00 | 0.00 | 0.00 | 89 | 1014.3 |
| 20260905132107 | 81 | 67 | 2.0 | 8.0 | 0.00 | 0.00 | 0.00 | 91 | 1014.2 |
| 20260905131603 | 80 | 106 | 0.0 | 4.0 | 0.00 | 0.00 | 0.00 | 91 | 1014.3 |
| 20260905131057 | 80 | 342 | 0.0 | 6.0 | 0.00 | 0.00 | 0.00 | 92 | 1014.1 |
| 20260905130557 | 80 | 34 | 1.0 | 5.0 | 0.00 | 0.00 | 0.00 | 91 | 1014.1 |
| 20260905130052 | 81 | 297 | 1.0 | 5.0 | 0.00 | 0.00 | 0.00 | 90 | 1014.1 |
| 20260905125551 | 80 | 18 | 4.0 | 6.0 | 0.00 | 0.00 | 0.00 | 91 | 1013.9 |
| 20260905125047 | 80 | 3 | 0.0 | 5.0 | 0.00 | 0.00 | 0.00 | 91 | 1014.4 |
| 20260905124543 | 80 | 4 | 2.0 | 5.0 | 0.00 | 0.00 | 0.00 | 91 | 1014.2 |
| 20260905124039 | 80 | 27 | 1.0 | 4.0 | 0.00 | 0.00 | 0.00 | 91 | 1014.1 |
| 20260905123534 | 80 | 9 | 1.0 | 5.0 | 0.00 | 0.00 | 0.00 | 91 | 1013.8 |
| 20260905123031 | 80 | 353 | 2.0 | 4.0 | 0.00 | 0.00 | 0.00 | 91 | 1013.5 |
| 20260905122531 | 79 | 6 | 0.0 | 2.0 | 0.00 | 0.00 | 0.00 | 93 | 1013.8 |
| 20260905122026 | 78 | 325 | 0.0 | 2.0 | 0.00 | 0.00 | 0.00 | 95 | 1013.5 |
| 20260905121520 | 77 | 327 | 2.0 | 4.0 | 0.00 | 0.00 | 0.00 | 96 | 1013.5 |
| 20260905121015 | 76 | 356 | 3.0 | 5.0 | 0.00 | 0.00 | 0.00 | 98 | 1013.8 |
| 20260905120509 | 76 | 322 | 2.0 | 4.0 | 0.00 | 0.00 | 0.00 | 99 | 1013.9 |
| 20260905120005 | 75 | 9 | 2.0 | 3.0 | 0.00 | 0.00 | 0.00 | 99 | 1013.7 |
| 20260905115503 | 75 | 322 | 0.0 | 1.0 | 0.00 | 0.00 | 0.00 | 99 | 1013.3 |
| 20260905114958 | 74 | 322 | 0.0 | 0.0 | 0.00 | 0.00 | 0.00 | 99 | 1013.2 |
| 20260905114458 | 74 | 322 | 0.0 | 1.0 | 0.00 | 0.00 | 0.00 | 99 | 1013.2 |
| 20260905113956 | 74 | 284 | 0.0 | 1.0 | 0.00 | 0.00 | 0.00 | 99 | 1013.1 |
| 20260905113452 | 74 | 315 | 0.0 | 2.0 | 0.00 | 0.00 | 0.00 | 99 | 1013.0 |
| 20260905112947 | 74 | 274 | 0.0 | 2.0 | 0.00 | 0.00 | 0.00 | 99 | 1013.0 |
| 20260905112442 | 74 | 283 | 0.0 | 2.0 | 0.00 | 0.00 | 0.00 | 99 | 1013.0 |
| 20260905111938 | 74 | 297 | 0.0 | 1.0 | 0.00 | 0.00 | 0.00 | 99 | 1012.8 |
| 20260905111432 | 75 | 305 | 1.0 | 2.0 | 0.00 | 0.00 | 0.00 | 99 | 1012.9 |
| 20260905110932 | 75 | 288 | 0.0 | 2.0 | 0.00 | 0.00 | 0.00 | 99 | 1012.9 |
| 20260905110425 | 75 | 245 | 0.0 | 1.0 | 0.00 | 0.00 | 0.00 | 99 | 1012.8 |
| 20260905105920 | 75 | 258 | 0.0 | 2.0 | 0.00 | 0.00 | 0.00 | 98 | 1012.8 |
| 20260905105420 | 76 | 297 | 0.0 | 2.0 | 0.00 | 0.00 | 0.00 | 98 | 1013.1 |
| 20260905104919 | 76 | 267 | 2.0 | 2.0 | 0.00 | 0.00 | 0.00 | 99 | 1013.0 |
| 20260905104415 | 76 | 359 | 0.0 | 1.0 | 0.00 | 0.00 | 0.00 | 98 | 1012.8 |
| 20260905103910 | 76 | 333 | 0.0 | 2.0 | 0.00 | 0.00 | 0.00 | 98 | 1013.0 |
| 20260905103406 | 76 | 297 | 0.0 | 1.0 | 0.00 | 0.00 | 0.00 | 98 | 1013.0 |
| 20260905102901 | 76 | 89 | 0.0 | 2.0 | 0.00 | 0.00 | 0.00 | 98 | 1012.8 |
| 20260905102358 | 76 | 15 | 0.0 | 1.0 | 0.00 | 0.00 | 0.00 | 98 | 1013.1 |
| 20260905101852 | 76 | 322 | 0.0 | 1.0 | 0.00 | 0.00 | 0.00 | 98 | 1012.7 |
| 20260905101351 | 76 | 50 | 0.0 | 0.0 | 0.00 | 0.00 | 0.00 | 97 | 1013.0 |
| 20260905100846 | 76 | 50 | 0.0 | 0.0 | 0.00 | 0.00 | 0.00 | 97 | 1013.2 |
| 20260905100341 | 76 | 315 | 0.0 | 2.0 | 0.00 | 0.00 | 0.00 | 97 | 1013.0 |
| 20260905095835 | 76 | 267 | 2.0 | 2.0 | 0.00 | 0.00 | 0.00 | 97 | 1013.0 |
| 20260905095335 | 76 | 269 | 0.0 | 2.0 | 0.00 | 0.00 | 0.00 | 97 | 1013.0 |
| 20260905094830 | 77 | 329 | 0.0 | 3.0 | 0.00 | 0.00 | 0.00 | 97 | 1013.1 |
| 20260905094326 | 77 | 308 | 0.0 | 3.0 | 0.00 | 0.00 | 0.00 | 97 | 1013.2 |
| 20260905093824 | 77 | 348 | 1.0 | 2.0 | 0.00 | 0.00 | 0.00 | 97 | 1013.0 |
| 20260905093320 | 77 | 358 | 2.0 | 3.0 | 0.00 | 0.00 | 0.00 | 97 | 1013.2 |
| 20260905092816 | 77 | 285 | 1.0 | 3.0 | 0.00 | 0.00 | 0.00 | 97 | 1013.4 |
| 20260905092316 | 77 | 288 | 2.0 | 3.0 | 0.00 | 0.00 | 0.00 | 97 | 1013.2 |
| 20260905091811 | 77 | 294 | 2.0 | 2.0 | 0.00 | 0.00 | 0.00 | 97 | 1013.1 |
| 20260905091311 | 77 | 241 | 1.0 | 2.0 | 0.00 | 0.00 | 0.00 | 97 | 1013.3 |
| 20260905090809 | 77 | 283 | 4.0 | 5.0 | 0.00 | 0.00 | 0.00 | 97 | 1013.1 |
| 20260905090305 | 77 | 279 | 3.0 | 5.0 | 0.00 | 0.00 | 0.00 | 97 | 1013.2 |
| 20260905085804 | 77 | 278 | 2.0 | 4.0 | 0.00 | 0.00 | 0.00 | 97 | 1013.0 |
| 20260905085259 | 77 | 264 | 4.0 | 5.0 | 0.00 | 0.00 | 0.00 | 97 | 1013.0 |
| 20260905084754 | 77 | 259 | 3.0 | 5.0 | 0.00 | 0.00 | 0.00 | 96 | 1013.0 |
| 20260905084254 | 77 | 260 | 2.0 | 3.0 | 0.00 | 0.00 | 0.00 | 96 | 1013.2 |
| 20260905083749 | 77 | 275 | 2.0 | 4.0 | 0.00 | 0.00 | 0.00 | 96 | 1013.1 |
| 20260905083244 | 77 | 262 | 2.0 | 3.0 | 0.00 | 0.00 | 0.00 | 96 | 1013.4 |
| 20260905082740 | 78 | 273 | 2.0 | 3.0 | 0.00 | 0.00 | 0.00 | 95 | 1013.2 |
| 20260905082236 | 78 | 275 | 2.0 | 3.0 | 0.00 | 0.00 | 0.00 | 96 | 1013.6 |
| 20260905081736 | 78 | 283 | 2.0 | 3.0 | 0.00 | 0.00 | 0.00 | 96 | 1013.4 |
| 20260905081231 | 78 | 262 | 1.0 | 2.0 | 0.00 | 0.00 | 0.00 | 95 | 1013.5 |
| 20260905080730 | 78 | 284 | 0.0 | 2.0 | 0.00 | 0.00 | 0.00 | 96 | 1013.4 |
| 20260905080225 | 78 | 276 | 2.0 | 2.0 | 0.00 | 0.00 | 0.00 | 95 | 1013.3 |
| 20260905075724 | 78 | 286 | 0.0 | 2.0 | 0.00 | 0.00 | 0.00 | 95 | 1013.5 |